Regional Weather Roundup
Issued by NWS Kansas City/Pleasant Hill, MO

Home | Current Version | Previous Version | Graphics & Text | Print | Product List | Glossary Off
Versions: 1 2 3 4 5 6 7 8 9 10 11 12 13 14 15 16 17 18 19 20 21 22 23 24 25 26 27 28

000
ASUS43 KEAX 220510
RWREAX

WEATHER ROUNDUP FOR EASTERN KANSAS AND NORTHWEST MISSOURI
NATIONAL WEATHER SERVICE KANSAS CITY/PLEASANT HILL MO
1100 PM CST WED FEB 21 2018

KSZ040-057-103>105-MOZ028-029-037-043-220600-
...KANSAS CITY METROPOLITAN AREA...

CITY           SKY/WX    TMP DP  RH WIND       PRES   REMARKS
K.C. INTL      CLOUDY    26  22  84 E14       30.45S WCI  14
K.C. DOWNTOWN  CLOUDY    28  23  81 E10       30.45F HAZE    WCI  19
LEES SUMMIT    CLOUDY    26  24  92 NE13      30.44S WCI  15
OLATHE - IXD   CLOUDY    26  24  92 NE8       30.43F WCI  18
OLATHE - OJC   CLOUDY    25  23  92 E12       30.42S WCI  14
LAWRENCE       CLOUDY    28  24  85 NE10      30.43F WCI  19

$$

MOZ001>008-011>017-020>025-030>033-038>040-044>046-053-054-220600-
...NORTHERN AND CENTRAL MISSOURI...

CITY           SKY/WX    TMP DP  RH WIND       PRES   REMARKS
ST. JOSEPH     CLOUDY    27  22  81 E14G21    30.47F WCI  16
MOSBY          CLOUDY    28  23  80 NE9       30.47S WCI  20
WARRENSBURG    CLOUDY    28  25  86 NE7       30.45S WCI  21
WHITEMAN AFB   CLOUDY    28  23  82 NE10      30.40S WCI  19
CLINTON        CLOUDY    28  27  93 CALM      30.43F FOG
SEDALIA        CLOUDY    29  28  96 E12       30.44F WCI  19
WARSAW         NOT AVBL
CHILLICOTHE      N/A     27  21  78 NE7       30.50F WCI  19
KIRKSVILLE     CLOUDY    27  22  81 NE12      30.50F WCI  17

$$

MOZ041-047>049-056>058-063>065-088>090-097-220600-
...EASTERN AND SOUTHERN MISSOURI...

CITY           SKY/WX    TMP DP  RH WIND       PRES   REMARKS
ST. LOUIS INTL LGT RAIN  33  32  96 NE7       30.42F WCI  27
SPIRIT OF STL  MIX PCPN  32  31  96 NE9       30.41F WCI  24
COLUMBIA       CLOUDY    29  28  96 NE7       30.46R FOG     WCI  22
JEFFERSON CITY CLOUDY    30  26  85 N3        30.48R
ROLLA          CLOUDY    28  27  96 NE12      30.37F FOG     WCI  18
OSAGE BEACH    MIX PCPN  28  27  93 VRB3      30.45R FOG
SPRINGFIELD    CLOUDY    29  27  92 NE10      30.35F FOG     WCI  20
BRANSON        CLOUDY    32  32 100 NW7       30.35F FOG     WCI  26
JOPLIN         CLOUDY    29  29 100 NE8       30.38S WCI  21
WEST PLAINS    CLOUDY    33  32  96 E15       30.26F WCI  23

$$

IAZ060-094-KSZ022-034>040-054-083-096-NEZ052-066-093-220600-
...KANSAS...SOUTHEAST NEBRASKA AND IOWA...

CITY           SKY/WX    TMP DP  RH WIND       PRES   REMARKS
TOPEKA         CLOUDY    28  25  88 NE9       30.44S WCI  19
MANHATTAN      FRZ RAIN  28  23  81 NE7       30.44S WCI  21
EMPORIA        CLOUDY    25  23  92 E10       30.39F FOG     WCI  15
CHANUTE        CLOUDY    28  25  88 NE12      30.38F WCI  18
WICHITA        CLOUDY    25  23  92 NE10      30.37F WCI  15
OMAHA          CLOUDY    24  15  68 NE6       30.53F WCI  17
LINCOLN        CLOUDY    25  15  66 NE12      30.51S WCI  14
FALLS CITY     CLOUDY    27  20  75 NE7       30.48R WCI  19
LAMONI         CLOUDY    24  19  81 NE14      30.48F WCI  12
DES MOINES     CLOUDY    24  15  68 NE9       30.55F WCI  14

$$





USA.gov is the U.S. government's official web portal to all federal, state and local government web resources and services.